Weather History for KMUT - June, 2012

Change the Weather History Date:

Thursday, June 21, 2012

  Actual Average (KIOW) Record (KIOW)
Temperature  
Mean Temperature 75 °F 73 °F  
Max Temperature 84 °F 83 °F 101 °F (1988)
Min Temperature 64 °F 63 °F 45 °F (1963)
Degree Days  
Heating Degree Days 0 0  
Month to date heating degree days 14  
Since 1 June heating degree days 14  
Since 1 July heating degree days 6375  
Cooling Degree Days 10 8  
Month to date cooling degree days 130  
Year to date cooling degree days 191  
Since 1 June cooling degree days 130  
Growing Degree Days 25 (Base 50)    
Moisture  
Dew Point 60 °F    
Average Humidity 62    
Maximum Humidity 88    
Minimum Humidity 32    
Precipitation  
Precipitation 0.04 in 0.15 in 1.30 in (1952)
Month to date precipitation 3.08  
Year to date precipitation 15.17  
Sea Level Pressure  
Sea Level Pressure 29.97 in    
Wind  
Wind Speed 9 mph (WNW)    
Max Wind Speed 24 mph    
Max Gust Speed 33 mph    
Visibility 10 miles    
Events Rain    
T = Trace of Precipitation, MM = Missing Value Source: NWS Daily Summary

Daily Weather History Graph

Daily Weather History Graph

Search for Another Location

Airport or City:

Trip Planner

Search our weather history database for the weather conditions in past years. The results will help you decide how hot, cold, wet, or windy it might be!

Date:

Astronomy

Jun. 21, 2012 Rise Set
Actual Time 5:31 AM CDT 8:41 PM CDT
Civil Twilight 4:57 AM CDT 9:15 PM CDT
Nautical Twilight 4:13 AM CDT 9:59 PM CDT
Astronomical Twilight 3:21 AM CDT 10:51 PM CDT
Moon 7:31 AM CDT (6/21) 10:03 PM CDT (6/21)
Length of Visible Light 16h 18m
Length of Day
15h 10m
Waxing Crescent, 4% of the Moon is Illuminated
Jun 21
Waxing Crescent
Jun 26
First Quarter
Jul 3
Full
Jul 10
Last Quarter
Jul 18
New

Hourly Weather History & Observations

Time (CDT) Temp. Heat Index Dew Point Humidity Pressure Visibility Wind Dir Wind Speed Gust Speed Precip Events Conditions
12:15 AM 80.6 °F 82.7 °F 66.2 °F 61% 29.90 in 10.0 mi WNW 24.2 mph 33.4 mph N/A   Mostly Cloudy
12:35 AM 77.0 °F - 64.4 °F 65% 29.91 in 10.0 mi WNW 17.3 mph 24.2 mph N/A   Overcast
12:55 AM 73.4 °F - 64.4 °F 73% 29.91 in 10.0 mi WNW 9.2 mph - N/A   Scattered Clouds
1:15 AM 73.4 °F - 64.4 °F 73% 29.92 in 10.0 mi WNW 5.8 mph - N/A   Scattered Clouds
1:35 AM 71.6 °F - 64.4 °F 78% 29.92 in 10.0 mi West 4.6 mph - N/A   Scattered Clouds
1:55 AM 71.6 °F - 64.4 °F 78% 29.92 in 10.0 mi West 4.6 mph - N/A   Scattered Clouds
2:15 AM 71.6 °F - 64.4 °F 78% 29.92 in 10.0 mi Calm Calm - N/A   Scattered Clouds
2:35 AM 71.6 °F - 66.2 °F 83% 29.92 in 10.0 mi WSW 4.6 mph - N/A   Overcast
2:55 AM 71.6 °F - 66.2 °F 83% 29.92 in 10.0 mi WSW 4.6 mph - N/A Rain Light Rain
3:15 AM 71.6 °F - 66.2 °F 83% 29.90 in 7.0 mi Calm Calm - 0.02 in Rain Rain
3:35 AM 71.6 °F - 66.2 °F 83% 29.91 in 10.0 mi West 3.5 mph - 0.03 in Rain Light Rain
3:55 AM 71.6 °F - 66.2 °F 83% 29.91 in 10.0 mi SSW 3.5 mph - 0.03 in Rain Light Rain
4:15 AM 71.6 °F - 66.2 °F 83% 29.91 in 10.0 mi Calm Calm - 0.01 in Rain Light Rain
4:35 AM 71.6 °F - 66.2 °F 83% 29.91 in 10.0 mi West 5.8 mph - 0.01 in   Overcast
4:55 AM 69.8 °F - 64.4 °F 83% 29.92 in 10.0 mi NW 8.1 mph 18.4 mph 0.01 in   Overcast
5:15 AM 68.0 °F - 64.4 °F 88% 29.93 in 7.0 mi Calm Calm - N/A   Overcast
5:35 AM 66.2 °F - 62.6 °F 88% 29.95 in 10.0 mi NW 6.9 mph - N/A   Overcast
5:55 AM 66.2 °F - 62.6 °F 88% 29.95 in 10.0 mi NW 3.5 mph - N/A   Overcast
6:15 AM 68.0 °F - 62.6 °F 83% 29.95 in 10.0 mi Calm Calm - N/A   Mostly Cloudy
6:35 AM 68.0 °F - 62.6 °F 83% 29.96 in 10.0 mi WNW 3.5 mph - N/A   Mostly Cloudy
6:55 AM 66.2 °F - 62.6 °F 88% 29.97 in 10.0 mi NW 6.9 mph - N/A   Mostly Cloudy
7:15 AM 66.2 °F - 62.6 °F 88% 29.98 in 10.0 mi West 3.5 mph - N/A   Scattered Clouds
7:35 AM 68.0 °F - 62.6 °F 83% 29.98 in 10.0 mi WNW 6.9 mph - N/A   Mostly Cloudy
7:55 AM 68.0 °F - 62.6 °F 83% 29.98 in 10.0 mi NW 8.1 mph - N/A   Scattered Clouds
8:15 AM 69.8 °F - 62.6 °F 78% 30.00 in 10.0 mi NW 9.2 mph - N/A   Scattered Clouds
8:35 AM 69.8 °F - 62.6 °F 78% 30.00 in 10.0 mi NW 13.8 mph - N/A   Clear
8:55 AM 69.8 °F - 62.6 °F 78% 30.01 in 10.0 mi NW 10.4 mph 19.6 mph N/A   Clear
9:15 AM 68.0 °F - 60.8 °F 78% 30.01 in 10.0 mi NW 11.5 mph 18.4 mph N/A   Scattered Clouds
9:35 AM 69.8 °F - 60.8 °F 73% 30.01 in 10.0 mi NW 9.2 mph - N/A   Clear
9:55 AM 71.6 °F - 62.6 °F 73% 30.01 in 10.0 mi NW 9.2 mph - N/A   Clear
10:15 AM 71.6 °F - 62.6 °F 73% 30.01 in 10.0 mi NW 9.2 mph - N/A   Clear
10:35 AM 75.2 °F - 60.8 °F 61% 30.01 in 10.0 mi NW 9.2 mph - N/A   Clear
10:55 AM 77.0 °F - 60.8 °F 57% 30.01 in 10.0 mi NW 12.7 mph - N/A   Clear
11:15 AM 78.8 °F - 60.8 °F 54% 30.01 in 10.0 mi NNW 10.4 mph - N/A   Clear
11:35 AM 80.6 °F 81.5 °F 60.8 °F 51% 30.01 in 10.0 mi WNW 10.4 mph 16.1 mph N/A   Clear
11:55 AM 80.6 °F 81.5 °F 60.8 °F 51% 30.01 in 10.0 mi WNW 10.4 mph - N/A   Clear
12:15 PM 80.6 °F 81.5 °F 60.8 °F 51% 30.01 in 10.0 mi WNW 12.7 mph 19.6 mph N/A   Clear
12:35 PM 82.4 °F 82.9 °F 60.8 °F 48% 30.01 in 10.0 mi NW 9.2 mph - N/A   Clear
12:55 PM 82.4 °F 82.9 °F 60.8 °F 48% 30.01 in 10.0 mi WNW 15.0 mph 26.5 mph N/A   Clear
1:15 PM 82.4 °F 82.9 °F 60.8 °F 48% 30.00 in 10.0 mi WNW 11.5 mph 16.1 mph N/A   Clear
1:35 PM 82.4 °F 82.9 °F 60.8 °F 48% 30.00 in 10.0 mi NW 9.2 mph 19.6 mph N/A   Clear
1:55 PM 84.2 °F 83.5 °F 57.2 °F 40% 30.00 in 10.0 mi NW 12.7 mph - N/A   Clear
2:15 PM 84.2 °F 83.5 °F 57.2 °F 40% 29.99 in 10.0 mi NW 12.7 mph 20.7 mph N/A   Clear
2:35 PM 84.2 °F 83.0 °F 55.4 °F 37% 29.99 in 10.0 mi NW 13.8 mph - N/A   Clear
2:55 PM 84.2 °F 83.0 °F 55.4 °F 37% 29.99 in 10.0 mi NNW 12.7 mph 19.6 mph N/A   Scattered Clouds
3:15 PM 82.4 °F 81.7 °F 55.4 °F 39% 29.99 in 10.0 mi NW 12.7 mph 20.7 mph N/A   Scattered Clouds
3:35 PM 84.2 °F 82.8 °F 53.6 °F 35% 29.98 in 10.0 mi WNW 12.7 mph 18.4 mph N/A   Scattered Clouds
3:55 PM 84.2 °F 82.8 °F 53.6 °F 35% 29.98 in 10.0 mi WNW 10.4 mph 15.0 mph N/A   Clear
4:15 PM 82.4 °F 81.4 °F 53.6 °F 37% 29.98 in 10.0 mi WNW 10.4 mph 18.4 mph N/A   Scattered Clouds
4:35 PM 84.2 °F - 51.8 °F 33% 29.97 in 10.0 mi NW 10.4 mph - N/A   Clear
4:55 PM 84.2 °F 82.8 °F 53.6 °F 35% 29.97 in 10.0 mi WNW 13.8 mph - N/A   Scattered Clouds
5:15 PM 84.2 °F 82.8 °F 53.6 °F 35% 29.97 in 10.0 mi WNW 11.5 mph - N/A   Scattered Clouds
5:35 PM 84.2 °F - 51.8 °F 33% 29.97 in 10.0 mi NW 10.4 mph - N/A   Clear
5:55 PM 82.4 °F - 51.8 °F 35% 29.97 in 10.0 mi WNW 13.8 mph 17.3 mph N/A   Clear
6:15 PM 82.4 °F - 50.0 °F 32% 29.97 in 10.0 mi WNW 11.5 mph 17.3 mph N/A   Clear
6:35 PM 82.4 °F - 51.8 °F 35% 29.97 in 10.0 mi WNW 12.7 mph 18.4 mph N/A   Clear
6:55 PM 82.4 °F - 51.8 °F 35% 29.97 in 10.0 mi WNW 11.5 mph - N/A   Clear
7:15 PM 80.6 °F 80.3 °F 53.6 °F 39% 29.98 in 10.0 mi NW 8.1 mph - N/A   Clear
7:35 PM 80.6 °F 80.3 °F 53.6 °F 39% 29.98 in 10.0 mi NW 9.2 mph - N/A   Clear
7:55 PM 78.8 °F - 55.4 °F 44% 29.99 in 10.0 mi NW 5.8 mph - N/A   Clear
8:15 PM 77.0 °F - 55.4 °F 47% 29.99 in 10.0 mi WNW 5.8 mph - N/A   Clear
8:35 PM 75.2 °F - 55.4 °F 50% 29.99 in 10.0 mi WNW 4.6 mph - N/A   Clear
8:55 PM 71.6 °F - 57.2 °F 60% 29.99 in 10.0 mi West 3.5 mph - N/A   Clear
9:15 PM 69.8 °F - 57.2 °F 64% 30.00 in 10.0 mi West 3.5 mph - N/A   Clear
9:35 PM 69.8 °F - 57.2 °F 64% 30.00 in 10.0 mi West 4.6 mph - N/A   Clear
9:55 PM 68.0 °F - 57.2 °F 68% 30.01 in 10.0 mi WNW 4.6 mph - N/A   Clear
10:15 PM 68.0 °F - 57.2 °F 68% 30.02 in 10.0 mi WNW 5.8 mph - N/A   Clear
10:35 PM 68.0 °F - 57.2 °F 68% 30.02 in 10.0 mi Calm Calm - N/A   Clear
10:55 PM 68.0 °F - 57.2 °F 68% 30.03 in 10.0 mi NW 3.5 mph - N/A   Clear
11:35 PM 66.2 °F - 57.2 °F 73% 30.03 in 10.0 mi Calm Calm - N/A   Clear
11:55 PM 64.4 °F - 57.2 °F 77% 30.03 in 10.0 mi NNW 3.5 mph - N/A   Clear